Location: Oroua River
(40.4333°S, 175.4333°E)
Time: 13:44:21
(UTC+00:00)

NPP - Pass Details

Date: 03 February 2023
Orbit: 826 x 828 km, 98.8° (Epoch: 23 March)

Event Time Altitude Azimuth Distance (km) Brightness Sun altitude
Exits shadow 13:30:37 46° 217° (SW) 1,120 4.4 -31.5°
Drops below altitude 10° 13:34:29 10° 199° (SSW) 2,462 6.7 -31.3°
Sets 13:36:53 0° 196° (SSW) 3,403 7.6 -31.1°
